Regional Weather Roundup
Issued by NWS Columbia, SC

Home | Current Version | Previous Version | Text Only | Print | Product List | Glossary On
Versions: 1 2 3 4 5 6 7 8 9 10 11 12 13 14 15 16 17 18 19 20 21 22 23 24 25 26 27
000
ASUS42 KCAE 311410
RWRCAE
REGIONAL WEATHER ROUNDUP
NATIONAL WEATHER SERVICE COLUMBIA SC
1000 AM EDT WED AUG 31 2016

NOTE: "FAIR" INDICATES FEW OR NO CLOUDS BELOW 12,000 FEET WITH NO
SIGNIFICANT WEATHER AND/OR OBSTRUCTIONS TO VISIBILITY.

NOT ALL STATIONS ARE QUALITY CONTROLLED BY THE NATIONAL
WEATHER SERVICE. USE DATA WITH CAUTION...ESPECIALLY
DEWPOINT OBSERVATIONS.

SCZ001>056-GAZ040-063>065-077-311500-
...UPSTATE SOUTH CAROLINA...

CITY           SKY/WX    TMP DP  RH WIND       PRES   REMARKS
ANDERSON       SUNNY     83  67  58 VRB3      30.03R
LIBERTY        SUNNY     82  69  66 SE5       30.03S
SPARTANBURG    SUNNY     81  64  57 NE5       30.03R
CLEMSON        SUNNY     82  68  62 VRB5      30.04S
GREENVILLE     SUNNY     83  67  58 E7        30.05R
GREENWOOD      SUNNY     83  68  60 NE3       30.03S
GREER          SUNNY     82  68  62 NE6       30.03S
ROCK HILL      SUNNY     85  66  53 NE5       30.04R
CHESTER        SUNNY     82  61  47 N3        30.03S
LAURENS        SUNNY     81  70  69 NE5       30.02R


...CENTRAL SOUTH CAROLINA...

CITY           SKY/WX    TMP DP  RH WIND       PRES   REMARKS
COLUMBIA APT   PTSUNNY   84  71  65 E5        29.99S
COLUMBIA OWENS SUNNY     83  69  62 E6        30.01R
MCENTIRE ANGB  PTSUNNY   83  70  64 E6        30.00S
ORANGEBURG     PTSUNNY   80  72  76 E10       30.00R
SUMTER SHAW    CLOUDY    83  69  62 VRB6      29.98S
NEWBERRY       CLOUDY    82  68  61 NE6       30.05S
MANNING        FAIR      77  70  78 NE6       30.00S
LANCASTER      SUNNY     82  64  54 NE3       30.02S
WINNSBORO      PTSUNNY   81  66  61 NE5       30.02R


...EASTERN AND COASTAL SOUTH CAROLINA...

CITY           SKY/WX    TMP DP  RH WIND       PRES   REMARKS
MYRTLE BEACH   PTSUNNY   79  68  69 NE6       30.02S
N MYRTLE BCH   CLOUDY    78  76  93 NE3       30.00R
CONWAY         DRIZZLE   77  73  88 CALM      30.01S
MARION         FAIR      77  70  78 CALM      30.01S
HARTSVILLE     FAIR      81  68  65 NE7       30.01R
FLORENCE       PTSUNNY   83  68  60 CALM      30.01R
DARLINGTON     PTSUNNY   79  72  79 NE5       30.02R
CHARLESTON APT CLOUDY    80  73  79 E13       29.98S
MOUNT PLEASANT FAIR      75  75 100 CALM      29.98F FOG
WALTERBORO     CLOUDY    81  77  89 E8        29.98S
BEAUFORT       CLOUDY    80  75  84 NE13G18   29.96R


...EASTERN GEORGIA...

CITY           SKY/WX    TMP DP  RH WIND       PRES   REMARKS
AUGUSTA BUSH F PTSUNNY   80  73  79 CALM      29.98S
AUGUSTA DANIEL SUNNY     83  71  67 NE8       30.00R
THOMSON        MOSUNNY   83  75  76 CALM      30.04R
WASHINGTON     FAIR      82  73  74 N5        30.01S
CLAXTON        PTSUNNY   80  75  84 NE12      29.95S
STATESBORO     PTSUNNY   79  75  87 E5        29.96S
SAVANNAH       PTSUNNY   78  74  87 NE8       29.94S


...SOUTHERN NORTH CAROLINA...

CITY           SKY/WX    TMP DP  RH WIND       PRES   REMARKS
CHARLOTTE      MOSUNNY   85  64  49 CALM      30.04R
MONROE         SUNNY     85  65  51 N6        30.02S
WADESBORO      MOSUNNY   83  70  64 N3        30.02R HAZE
ROCKINGHAM     MOSUNNY   80  73  77 CALM      30.02S
RUTHERFORDTON    N/A     80  69  70 CALM      30.06S
ASHEVILLE      SUNNY     75  64  68 NW5       30.12S

$$




USA.gov is the U.S. government's official web portal to all federal, state and local government web resources and services.